Time,TemperatureF,DewpointF,PressureIn,WindDirection,WindDirectionDegrees,WindSpeedMPH,WindSpeedGustMPH,Humidity,HourlyPrecipIn,Conditions,Clouds,dailyrainin,SoftwareType,DateUTC
2017-01-23 00:00:00,49.8,-99.9,29.46,North,-9999,0.0,0.0,95,0.00,,,-99.99,,2017-01-23 05:00:00,
2017-01-23 00:05:00,49.8,-99.9,29.46,North,-9999,0.0,0.0,95,0.00,,,-99.99,,2017-01-23 05:05:00,
2017-01-23 00:10:00,49.9,-99.9,29.45,North,-9999,0.0,0.0,94,0.00,,,-99.99,,2017-01-23 05:10:00,
2017-01-23 00:15:00,49.9,-99.9,29.44,North,-9999,0.0,0.0,94,0.00,,,-99.99,,2017-01-23 05:15:00,
2017-01-23 00:20:00,49.9,-99.9,29.43,North,-9999,0.0,0.0,94,0.00,,,-99.99,,2017-01-23 05:20:00,
2017-01-23 00:25:00,49.8,-99.9,29.43,North,-9999,0.0,0.0,94,0.00,,,-99.99,,2017-01-23 05:25:00,
2017-01-23 00:30:00,49.8,-99.9,29.42,North,-9999,0.0,0.0,94,0.00,,,-99.99,,2017-01-23 05:30:00,
2017-01-23 00:35:00,49.8,-99.9,29.43,North,-9999,0.0,0.0,94,0.00,,,-99.99,,2017-01-23 05:35:00,
2017-01-23 00:40:00,49.9,-99.9,29.43,North,-9999,0.0,0.0,94,0.00,,,-99.99,,2017-01-23 05:40:00,
2017-01-23 00:45:00,49.9,-99.9,29.43,North,-9999,0.0,0.0,94,0.00,,,-99.99,,2017-01-23 05:45:00,
2017-01-23 00:50:00,49.9,-99.9,29.42,North,-9999,0.0,0.0,94,0.00,,,-99.99,,2017-01-23 05:50:00,
2017-01-23 00:55:00,49.9,-99.9,29.43,North,-9999,0.0,0.0,94,0.00,,,-99.99,,2017-01-23 05:55:00,
2017-01-23 01:00:00,49.9,-99.9,29.43,North,-9999,0.0,0.0,93,0.00,,,-99.99,,2017-01-23 06:00:00,
2017-01-23 01:05:00,50.0,-99.9,29.43,North,-9999,0.0,0.0,93,0.00,,,-99.99,,2017-01-23 06:05:00,
2017-01-23 01:10:00,50.0,-99.9,29.42,North,-9999,0.0,0.0,93,0.00,,,-99.99,,2017-01-23 06:10:00,
2017-01-23 01:15:00,50.1,-99.9,29.40,North,-9999,0.0,0.0,93,0.00,,,-99.99,,2017-01-23 06:15:00,
2017-01-23 01:20:00,50.3,-99.9,29.39,North,-9999,0.0,0.0,93,0.00,,,-99.99,,2017-01-23 06:20:00,
2017-01-23 01:25:00,50.5,-99.9,29.41,North,-9999,0.0,0.0,92,0.00,,,-99.99,,2017-01-23 06:25:00,
2017-01-23 01:30:00,50.7,-99.9,29.37,North,-9999,0.0,0.0,92,0.00,,,-99.99,,2017-01-23 06:30:00,
2017-01-23 01:35:00,50.8,-99.9,29.37,North,-9999,0.0,0.0,92,0.00,,,-99.99,,2017-01-23 06:35:00,
2017-01-23 01:40:00,50.8,-99.9,29.37,North,-9999,0.0,0.0,92,0.00,,,-99.99,,2017-01-23 06:40:00,
2017-01-23 01:45:00,50.9,-99.9,29.36,North,-9999,0.0,0.0,92,0.00,,,-99.99,,2017-01-23 06:45:00,
2017-01-23 01:50:00,51.0,-99.9,29.35,North,-9999,0.0,0.0,91,0.00,,,-99.99,,2017-01-23 06:50:00,
2017-01-23 01:55:00,51.0,-99.9,29.36,North,-9999,0.0,0.0,91,0.00,,,-99.99,,2017-01-23 06:55:00,
2017-01-23 02:00:00,51.1,-99.9,29.36,North,-9999,0.0,0.0,91,0.00,,,-99.99,,2017-01-23 07:00:00,
2017-01-23 02:05:00,51.2,-99.9,29.35,North,-9999,0.0,0.0,91,0.00,,,-99.99,,2017-01-23 07:05:00,
2017-01-23 02:10:00,51.2,-99.9,29.35,North,-9999,0.0,0.0,91,0.00,,,-99.99,,2017-01-23 07:10:00,
2017-01-23 02:15:00,51.2,-99.9,29.36,North,-9999,0.0,0.0,91,0.00,,,-99.99,,2017-01-23 07:15:00,
2017-01-23 02:20:00,51.3,-99.9,29.34,North,-9999,0.0,0.0,91,0.00,,,-99.99,,2017-01-23 07:20:00,
2017-01-23 02:25:00,51.3,-99.9,29.34,North,-9999,0.0,0.0,91,0.00,,,-99.99,,2017-01-23 07:25:00,
2017-01-23 02:30:00,51.4,-99.9,29.35,North,-9999,0.0,0.0,91,0.00,,,-99.99,,2017-01-23 07:30:00,
2017-01-23 02:35:00,51.4,-99.9,29.34,North,-9999,0.0,0.0,90,0.00,,,-99.99,,2017-01-23 07:35:00,
2017-01-23 02:40:00,51.4,-99.9,29.35,North,-9999,0.0,0.0,90,0.00,,,-99.99,,2017-01-23 07:40:00,
2017-01-23 02:45:00,51.4,-99.9,29.35,North,-9999,0.0,0.0,90,0.00,,,-99.99,,2017-01-23 07:45:00,
2017-01-23 02:50:00,51.5,-99.9,29.35,North,-9999,0.0,0.0,90,0.00,,,-99.99,,2017-01-23 07:50:00,
2017-01-23 02:55:00,51.5,-99.9,29.34,North,-9999,0.0,0.0,90,0.00,,,-99.99,,2017-01-23 07:55:00,
2017-01-23 03:00:00,51.5,-99.9,29.34,North,-9999,0.0,0.0,90,0.00,,,-99.99,,2017-01-23 08:00:00,
2017-01-23 03:05:00,51.5,-99.9,29.33,North,-9999,0.0,0.0,90,0.00,,,-99.99,,2017-01-23 08:05:00,
2017-01-23 03:10:00,51.5,-99.9,29.32,North,-9999,0.0,0.0,90,0.00,,,-99.99,,2017-01-23 08:10:00,
2017-01-23 03:15:00,51.5,-99.9,29.30,North,-9999,0.0,0.0,90,0.00,,,-99.99,,2017-01-23 08:15:00,
2017-01-23 03:20:00,51.5,-99.9,29.31,North,-9999,0.0,0.0,90,0.00,,,-99.99,,2017-01-23 08:20:00,
2017-01-23 03:25:00,51.5,-99.9,29.31,North,-9999,0.0,0.0,90,0.00,,,-99.99,,2017-01-23 08:25:00,
2017-01-23 03:30:00,51.5,-99.9,29.33,North,-9999,0.0,0.0,90,0.00,,,-99.99,,2017-01-23 08:30:00,
2017-01-23 03:35:00,51.5,-99.9,29.31,North,-9999,0.0,0.0,90,0.00,,,-99.99,,2017-01-23 08:35:00,
2017-01-23 03:40:00,51.4,-99.9,29.32,North,-9999,0.0,0.0,90,0.00,,,-99.99,,2017-01-23 08:40:00,
2017-01-23 03:45:00,51.4,-99.9,29.29,North,-9999,0.0,0.0,90,0.00,,,-99.99,,2017-01-23 08:45:00,
2017-01-23 03:50:00,51.3,-99.9,29.27,North,-9999,0.0,0.0,90,0.00,,,-99.99,,2017-01-23 08:50:00,
2017-01-23 03:55:00,51.3,-99.9,29.27,North,-9999,0.0,0.0,90,0.00,,,-99.99,,2017-01-23 08:55:00,
2017-01-23 04:00:00,51.3,-99.9,29.26,North,-9999,0.0,0.0,89,0.00,,,-99.99,,2017-01-23 09:00:00,
2017-01-23 04:05:00,51.4,-99.9,29.26,North,-9999,0.0,0.0,89,0.00,,,-99.99,,2017-01-23 09:05:00,
2017-01-23 04:10:00,51.6,-99.9,29.27,North,-9999,0.0,0.0,89,0.00,,,-99.99,,2017-01-23 09:10:00,
2017-01-23 04:15:00,51.8,-99.9,29.28,North,-9999,0.0,0.0,89,0.00,,,-99.99,,2017-01-23 09:15:00,
2017-01-23 04:20:00,51.9,-99.9,29.28,North,-9999,0.0,0.0,89,0.00,,,-99.99,,2017-01-23 09:20:00,
2017-01-23 04:25:00,51.9,-99.9,29.29,North,-9999,0.0,0.0,88,0.00,,,-99.99,,2017-01-23 09:25:00,
2017-01-23 04:30:00,52.0,-99.9,29.30,North,-9999,0.0,0.0,88,0.00,,,-99.99,,2017-01-23 09:30:00,